Time,TemperatureF,DewpointF,PressureIn,WindDirection,WindDirectionDegrees,WindSpeedMPH,WindSpeedGustMPH,Humidity,HourlyPrecipIn,Conditions,Clouds,dailyrainin,SoftwareType,DateUTC
2013-08-24 00:10:00,52.7,51.0,30.19,West,260,0.0,0.0,93,0.00,,,0.00,weatherlink.com 1.10,2013-08-24 04:10:00,
2013-08-24 00:25:00,52.8,51.0,30.20,West,259,0.0,0.0,93,0.00,,,0.00,weatherlink.com 1.10,2013-08-24 04:25:00,
2013-08-24 00:40:00,52.6,51.0,30.19,West,260,0.0,0.0,93,0.00,,,0.00,weatherlink.com 1.10,2013-08-24 04:40:00,
2013-08-24 00:55:00,53.1,51.0,30.19,West,260,0.0,0.0,93,0.00,,,0.00,weatherlink.com 1.10,2013-08-24 04:55:00,
2013-08-24 01:10:00,53.7,52.0,30.20,West,260,0.0,0.0,93,0.00,,,0.00,weatherlink.com 1.10,2013-08-24 05:10:00,
2013-08-24 01:25:00,53.4,52.0,30.20,West,260,0.0,0.0,93,0.00,,,0.00,weatherlink.com 1.10,2013-08-24 05:25:00,
2013-08-24 01:40:00,52.8,51.0,30.20,West,260,0.0,0.0,93,0.00,,,0.00,weatherlink.com 1.10,2013-08-24 05:40:00,
2013-08-24 01:55:00,52.1,50.0,30.20,West,260,0.0,0.0,93,0.00,,,0.00,weatherlink.com 1.10,2013-08-24 05:55:00,
2013-08-24 02:10:00,51.6,50.0,30.20,West,260,0.0,0.0,93,0.00,,,0.00,weatherlink.com 1.10,2013-08-24 06:10:00,
2013-08-24 02:25:00,50.9,49.0,30.20,West,260,0.0,0.0,93,0.00,,,0.00,weatherlink.com 1.10,2013-08-24 06:25:00,
2013-08-24 02:40:00,50.0,48.0,30.20,West,260,0.0,0.0,93,0.00,,,0.00,weatherlink.com 1.10,2013-08-24 06:40:00,
2013-08-24 02:55:00,50.4,49.0,30.20,West,260,0.0,0.0,94,0.00,,,0.00,weatherlink.com 1.10,2013-08-24 06:55:00,
2013-08-24 03:10:00,49.8,48.0,30.20,West,260,0.0,0.0,93,0.00,,,0.00,weatherlink.com 1.10,2013-08-24 07:10:00,
2013-08-24 03:25:00,49.1,47.0,30.21,West,260,0.0,0.0,93,0.00,,,0.00,weatherlink.com 1.10,2013-08-24 07:25:00,
2013-08-24 03:40:00,48.8,47.0,30.21,West,260,0.0,0.0,94,0.00,,,0.00,weatherlink.com 1.10,2013-08-24 07:40:00,
2013-08-24 03:55:00,49.9,48.0,30.21,West,260,0.0,0.0,94,0.00,,,0.00,weatherlink.com 1.10,2013-08-24 07:55:00,
2013-08-24 04:10:00,49.0,47.0,30.22,West,260,0.0,0.0,94,0.00,,,0.00,weatherlink.com 1.10,2013-08-24 08:10:00,
2013-08-24 04:25:00,49.4,48.0,30.22,West,260,0.0,0.0,94,0.00,,,0.00,weatherlink.com 1.10,2013-08-24 08:25:00,
2013-08-24 04:40:00,49.2,48.0,30.22,West,260,0.0,0.0,94,0.00,,,0.00,weatherlink.com 1.10,2013-08-24 08:40:00,
2013-08-24 04:55:00,48.7,47.0,30.22,West,260,0.0,0.0,94,0.00,,,0.00,weatherlink.com 1.10,2013-08-24 08:55:00,
2013-08-24 05:10:00,48.4,47.0,30.23,West,260,0.0,0.0,94,0.00,,,0.00,weatherlink.com 1.10,2013-08-24 09:10:00,
2013-08-24 05:25:00,48.5,47.0,30.24,West,260,0.0,0.0,94,0.00,,,0.00,weatherlink.com 1.10,2013-08-24 09:25:00,
2013-08-24 05:40:00,48.1,47.0,30.24,West,260,0.0,0.0,94,0.00,,,0.00,weatherlink.com 1.10,2013-08-24 09:40:00,
2013-08-24 05:55:00,47.8,46.0,30.24,West,260,0.0,0.0,94,0.00,,,0.00,weatherlink.com 1.10,2013-08-24 09:55:00,
2013-08-24 06:10:00,48.5,47.0,30.25,West,260,0.0,0.0,94,0.00,,,0.00,weatherlink.com 1.10,2013-08-24 10:10:00,
2013-08-24 06:25:00,48.2,47.0,30.25,SSE,148,0.0,0.0,94,0.00,,,0.00,weatherlink.com 1.10,2013-08-24 10:25:00,
2013-08-24 06:40:00,48.3,47.0,30.25,SSE,148,0.0,0.0,94,0.00,,,0.00,weatherlink.com 1.10,2013-08-24 10:40:00,
2013-08-24 06:55:00,47.8,46.0,30.25,SSE,148,0.0,0.0,94,0.00,,,0.00,weatherlink.com 1.10,2013-08-24 10:55:00,
2013-08-24 07:10:00,47.7,46.0,30.26,SSE,148,0.0,0.0,94,0.00,,,0.00,weatherlink.com 1.10,2013-08-24 11:10:00,
2013-08-24 07:25:00,48.0,46.0,30.27,SSE,148,0.0,0.0,94,0.00,,,0.00,weatherlink.com 1.10,2013-08-24 11:25:00,
2013-08-24 07:40:00,49.2,48.0,30.27,SSE,148,0.0,0.0,94,0.00,,,0.00,weatherlink.com 1.10,2013-08-24 11:40:00,
2013-08-24 07:55:00,51.9,50.0,30.27,SE,126,1.0,1.0,94,0.00,,,0.00,weatherlink.com 1.10,2013-08-24 11:55:00,
2013-08-24 08:10:00,56.3,55.0,30.27,ESE,113,1.0,3.0,94,0.00,,,0.00,weatherlink.com 1.10,2013-08-24 12:10:00,
2013-08-24 08:25:00,59.1,57.0,30.27,ESE,105,3.0,4.0,94,0.00,,,0.00,weatherlink.com 1.10,2013-08-24 12:25:00,
2013-08-24 08:41:00,61.0,59.0,30.27,ESE,108,3.0,4.0,94,0.00,,,0.00,weatherlink.com 1.10,2013-08-24 12:41:00,
2013-08-24 08:56:00,62.5,60.0,30.27,ESE,117,2.0,5.0,92,0.00,,,0.00,weatherlink.com 1.10,2013-08-24 12:56:00,
2013-08-24 09:11:00,64.2,61.0,30.27,SSE,150,1.0,6.0,88,0.00,,,0.00,weatherlink.com 1.10,2013-08-24 13:11:00,
2013-08-24 09:26:00,65.4,59.0,30.27,SSE,155,4.0,6.0,81,0.00,,,0.00,weatherlink.com 1.10,2013-08-24 13:26:00,
2013-08-24 09:41:00,66.0,58.0,30.27,ESE,115,7.0,8.0,75,0.00,,,0.00,weatherlink.com 1.10,2013-08-24 13:41:00,
2013-08-24 09:56:00,66.6,58.0,30.27,ESE,106,1.0,8.0,73,0.00,,,0.00,weatherlink.com 1.10,2013-08-24 13:56:00,
2013-08-24 10:11:00,67.3,58.0,30.27,SE,146,5.0,7.0,72,0.00,,,0.00,weatherlink.com 1.10,2013-08-24 14:11:00,
2013-08-24 10:26:00,67.4,57.0,30.27,East,92,7.0,9.0,70,0.00,,,0.00,weatherlink.com 1.10,2013-08-24 14:26:00,
2013-08-24 10:41:00,67.5,57.0,30.26,ESE,120,6.0,9.0,69,0.00,,,0.00,weatherlink.com 1.10,2013-08-24 14:41:00,
2013-08-24 10:56:00,67.9,57.0,30.26,South,174,2.0,9.0,69,0.00,,,0.00,weatherlink.com 1.10,2013-08-24 14:56:00,
2013-08-24 11:11:00,68.0,58.0,30.26,South,174,3.0,8.0,71,0.00,,,0.00,weatherlink.com 1.10,2013-08-24 15:11:00,
2013-08-24 11:26:00,68.5,58.0,30.26,SSE,161,3.0,8.0,70,0.00,,,0.00,weatherlink.com 1.10,2013-08-24 15:26:00,
2013-08-24 11:41:00,69.0,58.0,30.26,WSW,250,0.0,7.0,68,0.00,,,0.00,weatherlink.com 1.10,2013-08-24 15:41:00,
2013-08-24 11:56:00,68.5,58.0,30.26,East,91,4.0,9.0,70,0.00,,,0.00,weatherlink.com 1.10,2013-08-24 15:56:00,
2013-08-24 12:11:00,68.8,59.0,30.26,West,281,2.0,7.0,70,0.00,,,0.00,weatherlink.com 1.10,2013-08-24 16:11:00,
2013-08-24 12:26:00,69.8,58.0,30.25,SW,227,3.0,7.0,67,0.00,,,0.00,weatherlink.com 1.10,2013-08-24 16:26:00,
2013-08-24 12:41:00,70.6,59.0,30.25,SSE,153,4.0,7.0,67,0.00,,,0.00,weatherlink.com 1.10,2013-08-24 16:41:00,
2013-08-24 12:56:00,71.1,59.0,30.25,SW,224,1.0,7.0,65,0.00,,,0.00,weatherlink.com 1.10,2013-08-24 16:56:00,
2013-08-24 13:11:00,71.7,59.0,30.25,ESE,113,6.0,9.0,65,0.00,,,0.00,weatherlink.com 1.10,2013-08-24 17:11:00,
2013-08-24 13:26:00,71.5,60.0,30.25,SW,221,4.0,8.0,67,0.00,,,0.00,weatherlink.com 1.10,2013-08-24 17:26:00,
2013-08-24 13:41:00,72.8,59.0,30.25,SSW,211,3.0,9.0,63,0.00,,,0.00,weatherlink.com 1.10,2013-08-24 17:41:00,
2013-08-24 13:56:00,73.1,59.0,30.24,ESE,110,3.0,10.0,61,0.00,,,0.00,weatherlink.com 1.10,2013-08-24 17:56:00,
2013-08-24 14:11:00,73.7,59.0,30.24,South,172,6.0,9.0,61,0.00,,,0.00,weatherlink.com 1.10,2013-08-24 18:11:00,
2013-08-24 14:26:00,73.8,58.0,30.24,SSW,201,1.0,8.0,59,0.00,,,0.00,weatherlink.com 1.10,2013-08-24 18:26:00,
2013-08-24 14:41:00,73.6,59.0,30.23,SSE,167,4.0,8.0,61,0.00,,,0.00,weatherlink.com 1.10,2013-08-24 18:41:00,
2013-08-24 14:56:00,74.4,59.0,30.23,West,277,1.0,5.0,58,0.00,,,0.00,weatherlink.com 1.10,2013-08-24 18:56:00,
2013-08-24 15:12:00,75.1,60.0,30.23,SW,221,2.0,6.0,60,0.00,,,0.00,weatherlink.com 1.10,2013-08-24 19:12:00,
2013-08-24 15:27:00,76.1,60.0,30.23,SW,231,1.0,6.0,57,0.00,,,0.00,weatherlink.com 1.10,2013-08-24 19:27:00,
2013-08-24 15:42:00,76.3,60.0,30.23,NW,305,1.0,7.0,58,0.00,,,0.00,weatherlink.com 1.10,2013-08-24 19:42:00,
2013-08-24 15:57:00,75.7,61.0,30.23,West,266,5.0,9.0,60,0.00,,,0.00,weatherlink.com 1.10,2013-08-24 19:57:00,
2013-08-24 16:12:00,75.1,61.0,30.23,South,183,2.0,7.0,62,0.00,,,0.00,weatherlink.com 1.10,2013-08-24 20:12:00,
2013-08-24 16:27:00,74.7,62.0,30.22,South,185,4.0,7.0,64,0.00,,,0.00,weatherlink.com 1.10,2013-08-24 20:27:00,
2013-08-24 16:42:00,74.5,62.0,30.22,SSE,149,2.0,9.0,65,0.00,,,0.00,weatherlink.com 1.10,2013-08-24 20:42:00,
2013-08-24 16:57:00,75.1,62.0,30.22,ESE,120,3.0,6.0,65,0.00,,,0.00,weatherlink.com 1.10,2013-08-24 20:57:00,
2013-08-24 17:12:00,74.7,63.0,30.22,ESE,102,7.0,7.0,66,0.00,,,0.00,weatherlink.com 1.10,2013-08-24 21:12:00,
2013-08-24 17:27:00,72.8,62.0,30.22,SE,126,6.0,7.0,70,0.00,,,0.00,weatherlink.com 1.10,2013-08-24 21:27:00,
2013-08-24 17:42:00,72.0,63.0,30.22,SW,222,1.0,7.0,73,0.00,,,0.00,weatherlink.com 1.10,2013-08-24 21:42:00,
2013-08-24 17:57:00,71.1,62.0,30.22,SSE,149,5.0,7.0,74,0.00,,,0.00,weatherlink.com 1.10,2013-08-24 21:57:00,
2013-08-24 18:12:00,71.0,62.0,30.21,ESE,120,7.0,8.0,74,0.00,,,0.00,weatherlink.com 1.10,2013-08-24 22:12:00,
2013-08-24 18:27:00,70.1,62.0,30.21,SE,136,4.0,6.0,75,0.00,,,0.00,weatherlink.com 1.10,2013-08-24 22:27:00,
2013-08-24 18:42:00,69.4,62.0,30.22,SE,128,5.0,8.0,76,0.00,,,0.00,weatherlink.com 1.10,2013-08-24 22:42:00,
2013-08-24 18:57:00,68.3,62.0,30.22,ESE,115,3.0,7.0,79,0.00,,,0.00,weatherlink.com 1.10,2013-08-24 22:57:00,
2013-08-24 19:12:00,67.7,62.0,30.21,ESE,117,3.0,7.0,81,0.00,,,0.00,weatherlink.com 1.10,2013-08-24 23:12:00,
2013-08-24 19:27:00,67.5,62.0,30.21,ESE,105,3.0,5.0,82,0.00,,,0.00,weatherlink.com 1.10,2013-08-24 23:27:00,
2013-08-24 19:42:00,67.0,61.0,30.21,East,101,2.0,6.0,82,0.00,,,0.00,weatherlink.com 1.10,2013-08-24 23:42:00,
2013-08-24 19:57:00,66.4,61.0,30.20,ESE,114,4.0,4.0,83,0.00,,,0.00,weatherlink.com 1.10,2013-08-24 23:57:00,
2013-08-24 20:12:00,65.8,61.0,30.20,East,101,1.0,4.0,83,0.00,,,0.00,weatherlink.com 1.10,2013-08-25 00:12:00,
2013-08-24 20:27:00,65.0,60.0,30.19,East,95,3.0,3.0,84,0.00,,,0.00,weatherlink.com 1.10,2013-08-25 00:27:00,
2013-08-24 20:42:00,64.6,60.0,30.20,ESE,123,1.0,4.0,84,0.00,,,0.00,weatherlink.com 1.10,2013-08-25 00:42:00,
2013-08-24 20:57:00,64.1,60.0,30.20,ESE,113,2.0,4.0,85,0.00,,,0.00,weatherlink.com 1.10,2013-08-25 00:57:00,
2013-08-24 21:12:00,63.8,60.0,30.20,ESE,119,1.0,5.0,86,0.00,,,0.00,weatherlink.com 1.10,2013-08-25 01:12:00,
2013-08-24 21:27:00,63.7,60.0,30.20,SE,125,2.0,5.0,86,0.00,,,0.00,weatherlink.com 1.10,2013-08-25 01:27:00,
2013-08-24 21:42:00,63.4,60.0,30.20,SE,132,3.0,5.0,87,0.00,,,0.00,weatherlink.com 1.10,2013-08-25 01:42:00,
2013-08-24 21:57:00,63.2,60.0,30.20,SE,131,3.0,5.0,88,0.00,,,0.00,weatherlink.com 1.10,2013-08-25 01:57:00,
2013-08-24 22:12:00,63.2,60.0,30.19,ESE,117,4.0,7.0,89,0.00,,,0.00,weatherlink.com 1.10,2013-08-25 02:12:00,
2013-08-24 22:27:00,63.4,60.0,30.19,ESE,115,3.0,5.0,89,0.00,,,0.00,weatherlink.com 1.10,2013-08-25 02:27:00,
2013-08-24 22:42:00,63.4,60.0,30.19,ESE,110,2.0,5.0,89,0.00,,,0.00,weatherlink.com 1.10,2013-08-25 02:42:00,
2013-08-24 22:57:00,63.6,60.0,30.18,SE,128,2.0,5.0,89,0.00,,,0.00,weatherlink.com 1.10,2013-08-25 02:57:00,
2013-08-24 23:12:00,63.6,61.0,30.18,SE,145,1.0,4.0,90,0.00,,,0.00,weatherlink.com 1.10,2013-08-25 03:12:00,
2013-08-24 23:27:00,63.3,60.0,30.18,ESE,114,3.0,4.0,90,0.00,,,0.00,weatherlink.com 1.10,2013-08-25 03:27:00,
2013-08-24 23:42:00,63.0,60.0,30.18,ESE,110,2.0,5.0,91,0.00,,,0.00,weatherlink.com 1.10,2013-08-25 03:42:00,
2013-08-24 23:57:00,62.8,60.0,30.17,ESE,118,1.0,3.0,91,0.00,,,0.00,weatherlink.com 1.10,2013-08-25 03:57:00,